Regional Weather Roundup
Issued by NWS

Home | Current Version | Previous Version | Text Only | Print | Product List | Glossary Off
Versions: 1 2 3 4 5 6 7 8 9 10 11 12 13 14 15 16 17 18 19 20 21 22 23 24 25 26 27 28 29 30 31 32 33 34 35 36 37 38 39 40 41 42 43 44 45 46 47 48 49 50

499
ASUS43 KOAX 250410
RWRNE

WEATHER ROUNDUP FOR NEBRASKA
NATIONAL WEATHER SERVICE OMAHA NE
1100 PM CDT SUN SEP 24 2017

NOTES: SATELLITE DATA IS BEING USED TO AUGMENT CLOUD COVER ABOVE
       12000 FEET.
       "FAIR" INDICATES FEW OR NO CLOUDS BELOW 12,000 FEET WITH NO
       SIGNIFICANT WEATHER AND/OR OBSTRUCTIONS TO VISIBILITY.


NEZ001>004-019>022-054>056-250500-
NEBRASKA PANHANDLE

CITY           SKY/WX    TMP DP  RH WIND       PRES   REMARKS
SCOTTSBLUFF    CLOUDY    47  44  90 NE14      30.07R FOG
ALLIANCE       CLOUDY    45  43  93 NE15      30.06F
CHADRON        CLOUDY    48  42  80 NE9       30.10R
GORDON         CLOUDY    47  43  85 NE9       30.09S
KIMBALL        RAIN      46  46 100 NE12      30.05F
SIDNEY         LGT RAIN  47  46  97 NE15      30.04S FOG
$$

NEZ057>060-069>072-079>082-250500-
SOUTHWEST NEBRASKA

CITY           SKY/WX    TMP DP  RH WIND       PRES   REMARKS
NORTH PLATTE   LGT RAIN  53  51  93 NE9       30.02S
IMPERIAL       CLOUDY    51  48  89 NE14      29.99F
LEXINGTON      LGT RAIN  55  52  92 NE8       29.99F
MCCOOK         CLOUDY    55  55 100 NE15      29.94F
OGALLALA       CLOUDY    52  49  88 NE15      30.02S
$$

NEZ005>010-023>029-035>040-094-250500-
NORTH CENTRAL NEBRASKA

CITY           SKY/WX    TMP DP  RH WIND       PRES   REMARKS
VALENTINE      CLOUDY    52  46  80 N9        30.08R
AINSWORTH      LGT RAIN  51  49  93 NE9       30.07R
BROKEN BOW     CLOUDY    53  52  96 N9        30.01F
O`NEILL        LGT RAIN  53  52  98 NW10      30.06R
ORD            RAIN      52  50  93 N13       29.99F FOG
THEDFORD       CLOUDY    50  49  93 NE9       30.06F
$$

NEZ041-046>049-061>064-073>077-083>087-250500-
SOUTH CENTRAL NEBRASKA

CITY           SKY/WX    TMP DP  RH WIND       PRES   REMARKS
GRAND ISLAND   CLOUDY    57  57 100 NE9       29.99S
AURORA         CLOUDY    57  56  98 NE10      29.97S
HASTINGS       CLOUDY    58  56  93 NE10      29.98F
HEBRON         CLOUDY    65  63  94 NE5       29.93F
HOLDREGE       TSTM      55  54  95 N13       29.97F
KEARNEY        LGT RAIN  56  54  93 N13       30.00S
YORK           LGT RAIN  59  59 100 NE9       29.96F
$$

NEZ011>018-030>034-042>045-250500-
NORTHEAST NEBRASKA

CITY           SKY/WX    TMP DP  RH WIND       PRES   REMARKS
NORFOLK        CLOUDY    56  55  97 N12       29.98S
ALBION         CLOUDY    55  54  94 N9        30.00R
BLAIR          CLOUDY    63  60  90 NW8       29.97R
COLUMBUS       HVY RAIN  58  56  93 N7        30.00R
FREMONT        HVY RAIN  62  60  94 N5        29.99R
TEKAMAH        LGT RAIN  62  59  90 N8        29.94F
WAYNE          CLOUDY    56  54  91 N10       29.98S
$$

NEZ050>053-065>068-078-088>093-250500-
SOUTHEAST NEBRASKA

CITY           SKY/WX    TMP DP  RH WIND       PRES   REMARKS
LINCOLN        LGT RAIN  64  63  96 N10       29.96F
OMAHA EPPLEY   CLOUDY    66  60  81 N12       29.94R
BEATRICE       CLOUDY    68  67  98 W12       29.96R
FALLS CITY     PTCLDY    73  65  75 SE6       29.91S
NEBRASKA CITY  CLOUDY    75  68  78 S6        29.92R
PLATTSMOUTH    CLOUDY    69  66  90 NW6       29.94R
$$

NEZ044-045-051>053-067-250500-
OMAHA AREA

CITY           SKY/WX    TMP DP  RH WIND       PRES   REMARKS
OMAHA EPPLEY   CLOUDY    66  60  81 N12       29.94R
BLAIR          CLOUDY    63  60  90 NW8       29.97R
FREMONT        HVY RAIN  62  60  94 N5        29.99R
MILLARD        MOCLDY    68  63  82 N7        29.94F
OFFUTT AFB     PTCLDY    68  63  83 N6        29.93R
PLATTSMOUTH    CLOUDY    69  66  90 NW6       29.94R
WAHOO          RAIN      62  61  96 N5        29.98S
$$




USA.gov is the U.S. government's official web portal to all federal, state and local government web resources and services.